Flag for Tuvalu Weather past 2 weeks in Funafuti, Tuvalu

Now
81 °F

Scattered showers. Mostly cloudy.


Feels Like: 86 °F
Forecast: 80 / 88 °F
Wind: 2 mph from North

Location: Funafuti

Current Time: Apr 26, 2015 at 6:38:09 PM

Latest Report: Apr 26, 2015 at 6:00 PM


Visibility: N/A

Pressure: 29.83 "Hg

Humidity: 84%

Dew point: 75 °F

Location of FunafutiLocation

Historic Weather in Funafuti — Graph

°F

Funafuti temperature yesterday

Maximum temperature yesterday: 90 °F (at 10:00 AM)
Minimum temperature yesterday: 79 °F (at 11:00 PM)
Average temperature yesterday: 83 °F

Past Weeks' High & Low Weather Summary

 TemperatureHumidityPressure
High91 °F (Apr 12, 12:00 PM)100% (Apr 13, 12:00 AM)29.95 "Hg (Apr 13, 12:00 AM)
Low77 °F (Apr 13, 7:00 PM)66% (Apr 17, 9:00 AM)29.71 "Hg (Apr 20, 4:00 PM)
Average84 °F80%29.81 "Hg
* Reported Apr 11 6:00 PM — Apr 26 5:00 PM, Funafuti, Weather by CustomWeather, © 2015

Note: Actual official high and low records may vary slightly from our data, if they occured in-between our weather recording intervals... More about our weather records

Advertising

Funafuti weather history for previous 24 hours

 ConditionsComfort  
Time TempWeatherWind HumidityBarometerVisibility
5:00 PM
Sun, Apr 26
79 °FScattered showers. More clouds than sun.2 mph89%29.80 "HgN/A
4:00 PM77 °FSprinkles. More clouds than sun.No wind94%29.77 "HgN/A
3:00 PM77 °FSprinkles. More clouds than sun.No wind94%29.77 "HgN/A
2:00 PM77 °FSprinkles. More clouds than sun.2 mph89%29.80 "HgN/A
1:00 PM77 °FSprinkles. More clouds than sun.9 mph89%29.83 "HgN/A
12:00 PM82 °FThunderstorms. More clouds than sun.12 mph84%29.83 "HgN/A
11:00 AM88 °FScattered showers. Broken clouds.3 mph75%29.86 "HgN/A
10:00 AM86 °FScattered showers. Scattered clouds.1 mph79%29.86 "HgN/A
9:00 AMN/AScattered showers.1 mphN/A29.86 "HgN/A
8:00 AM84 °FBroken clouds.2 mph74%29.86 "HgN/A
7:00 AM82 °FBroken clouds.1 mph79%29.83 "HgN/A
6:00 AM81 °FScattered showers. Partly cloudy.1 mph84%29.80 "HgN/A
4:00 AM81 °FPartly cloudy.No wind89%29.77 "HgN/A
3:00 AM79 °FPartly cloudy.No wind89%29.80 "HgN/A
2:00 AM79 °FPartly cloudy.5 mph89%29.80 "HgN/A
1:00 AM79 °FScattered showers. Partly cloudy.8 mph89%29.80 "HgN/A
12:00 AM79 °FScattered showers. Mostly cloudy.1 mph89%29.83 "HgN/A
11:00 PM
Sat, Apr 25
79 °FSprinkles. Mostly cloudy.7 mph94%29.86 "HgN/A
10:00 PM82 °FScattered showers. Partly cloudy.3 mph84%29.86 "HgN/A
9:00 PM82 °FPartly cloudy.1 mph84%29.83 "HgN/A
8:00 PM81 °FPartly cloudy.1 mph89%29.83 "HgN/A
7:00 PM81 °FPartly cloudy.1 mph89%29.80 "HgN/A
Weather by CustomWeather, © 2015

See weather overviewHow to use our weather pages